FW7539 Weather Reports


time (UTC)temp
C
wind
direction
speed
KPH
gust
KPH
rain 1hr
cm
rain 24hr
cm
rain mn
cm
humidity
%
barometer
mb
20260503200956 16 170 4.8 16.1 0.00 0.00 0.00 40 1016.7
20260503200456 16 209 4.8 16.1 0.00 0.00 0.00 39 1016.8
20260503200018 16 237 4.8 20.9 0.00 0.00 0.00 40 1016.8
20260503195457 16 209 6.4 20.9 0.00 0.00 0.00 38 1016.8
20260503195018 16 175 4.8 17.7 0.00 0.00 0.00 40 1017.0
20260503194457 15 155 4.8 12.9 0.00 0.00 0.00 40 1017.1
20260503193957 15 162 6.4 17.7 0.00 0.00 0.00 40 1017.1
20260503193456 16 181 4.8 17.7 0.00 0.00 0.00 38 1017.3
20260503192956 16 162 3.2 12.9 0.00 0.00 0.00 44 1017.5
20260503192456 16 159 3.2 12.9 0.00 0.00 0.00 42 1017.7
20260503192018 16 160 4.8 11.3 0.00 0.00 0.00 42 1017.8
20260503191456 16 181 4.8 11.3 0.00 0.00 0.00 39 1017.7
20260503190956 16 215 4.8 19.3 0.00 0.00 0.00 39 1018.0
20260503190456 16 185 6.4 20.9 0.00 0.00 0.00 41 1018.0
20260503190018 16 158 6.4 20.9 0.00 0.00 0.00 39 1018.0
20260503185456 16 153 6.4 17.7 0.00 0.00 0.00 40 1018.1
20260503185018 16 165 6.4 17.7 0.00 0.00 0.00 37 1018.2
20260503184517 15 203 4.8 16.1 0.00 0.00 0.00 38 1018.4
20260503183956 15 206 6.4 17.7 0.00 0.00 0.00 38 1018.4
20260503183457 15 182 4.8 17.7 0.00 0.00 0.00 40 1018.6
20260503182956 15 192 4.8 16.1 0.00 0.00 0.00 40 1018.7
20260503182456 15 190 4.8 12.9 0.00 0.00 0.00 41 1018.6
20260503182017 15 187 4.8 12.9 0.00 0.00 0.00 41 1018.6
20260503181456 15 211 4.8 17.7 0.00 0.00 0.00 40 1018.7
20260503180957 15 229 6.4 17.7 0.00 0.00 0.00 38 1018.7
20260503180457 15 209 6.4 17.7 0.00 0.00 0.00 38 1018.8
20260503175956 15 159 6.4 19.3 0.00 0.00 0.00 42 1018.9
20260503175456 15 150 8.0 19.3 0.00 0.00 0.00 39 1018.7
20260503174957 15 160 8.0 17.7 0.00 0.00 0.00 39 1018.9
20260503174457 15 168 6.4 17.7 0.00 0.00 0.00 39 1019.0
20260503174017 15 156 6.4 17.7 0.00 0.00 0.00 39 1019.1
20260503173456 15 153 4.8 14.5 0.00 0.00 0.00 40 1019.2
20260503172957 15 166 4.8 19.3 0.00 0.00 0.00 41 1019.3
20260503172456 15 170 4.8 19.3 0.00 0.00 0.00 39 1019.4
20260503171957 15 171 3.2 16.1 0.00 0.00 0.00 44 1019.5
20260503171456 15 185 3.2 11.3 0.00 0.00 0.00 42 1019.6
20260503170956 15 186 4.8 12.9 0.00 0.00 0.00 42 1019.8
20260503170518 15 199 4.8 19.3 0.00 0.00 0.00 40 1020.0
20260503150957 12 194 4.8 14.5 0.00 0.00 0.00 53 1021.3
20260503150457 12 194 4.8 17.7 0.00 0.00 0.00 54 1021.3
20260503130957 8 220 3.2 12.9 0.00 0.00 0.00 63 1021.3
20260503130457 7 236 1.6 12.9 0.00 0.00 0.00 64 1021.3
20260503110457 2 241 0.0 3.2 0.00 0.00 0.00 84 1020.6
20260503090456 1 333 0.0 1.6 0.00 0.00 0.00 87 1020.1
20260503081457 1 0 0.0 0.0 0.00 0.00 0.00 88 1020.0
20260503080957 1 0 0.0 0.0 0.00 0.00 0.00 88 1020.0
20260503080457 1 0 0.0 0.0 0.00 0.00 0.00 87 1020.0
20260503072457 1 0 0.0 0.0 0.00 0.00 0.00 88 1019.9
20260503071957 1 0 0.0 0.0 0.00 0.00 0.00 87 1019.8
20260503071457 1 0 0.0 0.0 0.00 0.00 0.00 87 1019.8
20260503070957 1 0 0.0 0.0 0.00 0.00 0.00 87 1019.9
20260503070457 1 0 0.0 0.0 0.00 0.00 0.00 88 1019.8
20260503054957 1 0 0.0 0.0 0.00 0.00 0.00 87 1020.2
20260503054519 1 0 0.0 0.0 0.00 0.00 0.00 87 1020.2
20260503054018 1 0 0.0 0.0 0.00 0.00 0.00 87 1020.2
20260503053457 1 0 0.0 0.0 0.00 0.00 0.00 87 1020.2
20260503052957 1 0 0.0 0.0 0.00 0.00 0.00 86 1020.3
20260503052457 1 0 0.0 0.0 0.00 0.00 0.00 86 1020.2
20260503051957 1 0 0.0 0.0 0.00 0.00 0.00 86 1020.2
20260503051457 1 0 0.0 0.0 0.00 0.00 0.00 86 1020.2
20260503050957 1 0 0.0 0.0 0.00 0.00 0.00 86 1020.2
20260503050457 2 0 0.0 0.0 0.00 0.00 0.00 86 1020.2
20260503045958 2 0 0.0 0.0 0.00 0.00 0.00 86 1020.2
20260503045457 2 0 0.0 0.0 0.00 0.00 0.00 85 1020.2
20260503044957 2 0 0.0 0.0 0.00 0.00 0.00 85 1020.2
20260503044458 2 0 0.0 0.0 0.00 0.00 0.00 85 1020.2
20260503043958 2 0 0.0 0.0 0.00 0.00 0.00 85 1020.2
20260503043457 2 0 0.0 0.0 0.00 0.00 0.00 84 1020.2
20260503042957 2 0 0.0 0.0 0.00 0.00 0.00 84 1020.2
20260503042457 2 0 0.0 0.0 0.00 0.00 0.00 84 1020.3
20260503041957 2 0 0.0 0.0 0.00 0.00 0.00 84 1020.3
20260503041457 2 0 0.0 0.0 0.00 0.00 0.00 84 1020.2
20260503040957 2 0 0.0 0.0 0.00 0.00 0.00 83 1020.2
20260503040457 2 0 0.0 0.0 0.00 0.00 0.00 82 1020.2
20260503035957 2 0 0.0 0.0 0.00 0.00 0.00 82 1020.3
20260503035458 2 0 0.0 0.0 0.00 0.00 0.00 82 1020.3
20260503034957 2 0 0.0 0.0 0.00 0.00 0.00 81 1020.3
20260503034458 3 0 0.0 0.0 0.00 0.00 0.00 80 1020.3
20260503033957 3 0 0.0 0.0 0.00 0.00 0.00 79 1020.3
20260503033457 3 0 0.0 0.0 0.00 0.00 0.00 79 1020.3
20260503032957 3 0 0.0 0.0 0.00 0.00 0.00 79 1020.3
20260503032457 3 0 0.0 0.0 0.00 0.00 0.00 78 1020.3
20260503032018 3 0 0.0 0.0 0.00 0.00 0.00 77 1020.3
20260503031457 3 0 0.0 0.0 0.00 0.00 0.00 77 1020.3
20260503030957 3 0 0.0 0.0 0.00 0.00 0.00 76 1020.3
20260503030518 3 0 0.0 0.0 0.00 0.00 0.00 76 1020.3
20260503025957 3 0 0.0 0.0 0.00 0.00 0.00 75 1020.3
20260503025458 4 0 0.0 0.0 0.00 0.00 0.00 76 1020.3
20260503024957 4 0 0.0 0.0 0.00 0.00 0.00 75 1020.3
20260503024458 4 0 0.0 0.0 0.00 0.00 0.00 73 1020.3
20260503023957 4 0 0.0 0.0 0.00 0.00 0.00 73 1020.3
20260503023457 5 0 0.0 0.0 0.00 0.00 0.00 72 1020.2
20260503022957 5 0 0.0 0.0 0.00 0.00 0.00 71 1020.3
20260503022458 5 0 0.0 0.0 0.00 0.00 0.00 71 1020.3
20260503021958 5 0 0.0 0.0 0.00 0.00 0.00 71 1020.2
20260503021457 5 0 0.0 0.0 0.00 0.00 0.00 71 1020.1
20260503021018 5 0 0.0 0.0 0.00 0.00 0.00 70 1020.0
20260503020518 5 0 0.0 0.0 0.00 0.00 0.00 69 1020.0
20260503015957 6 0 0.0 0.0 0.00 0.00 0.00 66 1019.9
20260503015457 6 333 0.0 1.6 0.00 0.00 0.00 65 1019.9
20260503014957 6 333 0.0 1.6 0.00 0.00 0.00 66 1019.9
20260503014458 6 333 0.0 1.6 0.00 0.00 0.00 63 1019.9
20260503013958 7 333 0.0 1.6 0.00 0.00 0.00 62 1019.8
20260503013458 7 333 0.0 1.6 0.00 0.00 0.00 61 1019.7
20260503012957 7 333 0.0 1.6 0.00 0.00 0.00 59 1019.7
20260503012518 7 333 0.0 3.2 0.00 0.00 0.00 57 1019.7
20260503011957 7 334 0.0 3.2 0.00 0.00 0.00 56 1019.6
20260503011458 7 336 0.0 3.2 0.00 0.00 0.00 56 1019.6
20260503010958 8 344 0.0 3.2 0.00 0.00 0.00 57 1019.5
20260503010458 8 351 0.0 3.2 0.00 0.00 0.00 54 1019.4
20260503010019 8 354 1.6 3.2 0.00 0.00 0.00 54 1019.4
20260503005457 8 345 1.6 3.2 0.00 0.00 0.00 53 1019.4
20260503004958 8 331 0.0 3.2 0.00 0.00 0.00 52 1019.4
20260503004518 8 334 0.0 4.8 0.00 0.00 0.00 51 1019.3
20260503003957 8 337 0.0 4.8 0.00 0.00 0.00 50 1019.3
20260503003458 9 349 1.6 4.8 0.00 0.00 0.00 50 1019.3
20260503002957 9 346 1.6 8.0 0.00 0.00 0.00 50 1019.2
20260503002457 9 342 3.2 9.7 0.00 0.00 0.00 49 1019.2
20260503001958 9 352 3.2 16.1 0.00 0.00 0.00 49 1019.1
20260503001519 9 2 3.2 16.1 0.00 0.00 0.00 48 1019.1
20260503001019 10 356 3.2 8.0 0.00 0.00 0.00 48 1019.0
20260503000457 10 344 3.2 11.3 0.00 0.00 0.00 47 1018.9
20260502235957 10 357 3.2 14.5 0.00 0.00 0.00 47 1018.9
20260502235519 10 357 3.2 14.5 0.00 0.00 0.00 46 1018.8
20260502234958 10 332 3.2 8.0 0.00 0.00 0.00 47 1018.8
20260502234457 10 332 3.2 9.7 0.00 0.00 0.00 46 1018.7
20260502233957 10 357 4.8 12.9 0.00 0.00 0.00 44 1018.7
20260502233458 11 359 4.8 17.7 0.00 0.00 0.00 43 1018.7
20260502232957 11 341 4.8 17.7 0.00 0.00 0.00 43 1018.6
20260502232458 11 322 3.2 12.9 0.00 0.00 0.00 44 1018.6
20260502231957 11 341 3.2 9.7 0.00 0.00 0.00 43 1018.6
20260502231457 11 339 3.2 9.7 0.00 0.00 0.00 45 1018.6
20260502230958 11 330 3.2 12.9 0.00 0.00 0.00 44 1018.6
20260502230518 11 344 3.2 12.9 0.00 0.00 0.00 44 1018.6
20260502225957 11 360 3.2 8.0 0.00 0.00 0.00 45 1018.5
20260502225458 11 359 3.2 17.7 0.00 0.00 0.00 44 1018.6
20260502224957 11 339 4.8 17.7 0.00 0.00 0.00 44 1018.6
20260502224457 11 347 4.8 14.5 0.00 0.00 0.00 42 1018.5
20260502223958 12 3 4.8 14.5 0.00 0.00 0.00 44 1018.5
20260502223518 11 7 4.8 14.5 0.00 0.00 0.00 44 1018.4
20260502222957 11 6 3.2 12.9 0.00 0.00 0.00 43 1018.4
20260502222458 11 8 3.2 11.3 0.00 0.00 0.00 43 1018.4
20260502221957 11 10 3.2 17.7 0.00 0.00 0.00 44 1018.5
20260502221457 11 8 4.8 17.7 0.00 0.00 0.00 43 1018.4
20260502220958 11 348 4.8 16.1 0.00 0.00 0.00 43 1018.4
20260502220457 11 285 3.2 11.3 0.00 0.00 0.00 42 1018.3
20260502215958 11 288 3.2 11.3 0.00 0.00 0.00 41 1018.3
20260502215458 11 310 3.2 11.3 0.00 0.00 0.00 41 1018.3
20260502215018 11 289 3.2 11.3 0.00 0.00 0.00 41 1018.2
20260502214458 11 335 4.8 16.1 0.00 0.00 0.00 41 1018.3
20260502213958 11 329 4.8 16.1 0.00 0.00 0.00 41 1018.3
20260502213457 12 295 4.8 14.5 0.00 0.00 0.00 41 1018.3
20260502212958 12 330 6.4 16.1 0.00 0.00 0.00 39 1018.2
20260502212457 13 351 6.4 22.5 0.00 0.00 0.00 38 1018.1
20260502212018 13 348 4.8 22.5 0.00 0.00 0.00 40 1018.1
20260502211457 12 359 4.8 17.7 0.00 0.00 0.00 41 1018.0
20260502210957 12 359 4.8 17.7 0.00 0.00 0.00 42 1018.0
20260502210457 11 3 4.8 17.7 0.00 0.00 0.00 41 1018.1
20260502205957 11 4 4.8 17.7 0.00 0.00 0.00 42 1018.0
20260502205518 11 334 4.8 14.5 0.00 0.00 0.00 42 1018.1
20260502204958 11 342 4.8 16.1 0.00 0.00 0.00 41 1018.1
20260502204457 11 357 4.8 16.1 0.00 0.00 0.00 42 1018.1
20260502203957 12 317 4.8 11.3 0.00 0.00 0.00 41 1018.1
20260502203457 12 288 4.8 14.5 0.00 0.00 0.00 40 1018.2
20260502202957 12 285 4.8 14.5 0.00 0.00 0.00 39 1018.1
20260502202457 13 310 4.8 16.1 0.00 0.00 0.00 40 1018.0
20260502201958 13 318 4.8 16.1 0.00 0.00 0.00 39 1018.1
20260502201457 13 268 4.8 14.5 0.00 0.00 0.00 40 1018.3